Regional Weather Roundup
Issued by NWS Spokane, WA

Home | Current Version | Previous Version | Text Only | Print | Product List | Glossary On
Versions: 1 2 3 4 5 6 7 8 9 10 11 12 13 14 15 16 17 18 19 20 21 22 23 24 25 26 27 28 29 30 31 32 33 34 35 36 37 38 39 40 41 42 43 44 45 46 47 48 49 50
531
NZUS01 KOTX 031110
RWROTX
EASTERN WASHINGTON/NORTHERN IDAHO ROUNDUP
NATIONAL WEATHER SERVICE, SPOKANE WA
400 AM PDT TUE MAY 03 2016

Note: "fair" indicated few or no clouds below 12,000 feet with no
significant weather and/or obstructions to visibility.

...NORTHEAST WASHINGTON AND NORTHERN IDAHO PANHANDLE...

CITY           SKY/WX    TMP DP  RH WIND       PRES   REMARKS
SPOKANE INTL   CLEAR     53  42  66 E5        30.06R
SPOKANE DOWNTO CLEAR     48  42  80 CALM      30.07R
COEUR D ALENE  CLEAR     46  43  87 E3        30.06S
DEER PARK      CLEAR     43  39  86 N3        30.06S
SANDPOINT      CLEAR     41  41 100 CALM      30.10R

...SOUTHEAST WASHINGTON AND SOUTHERN IDAHO PANHANDLE...

CITY           SKY/WX    TMP DP  RH WIND       PRES   REMARKS
WALLA WALLA    CLEAR     65  32  29 S3        29.96S
PULLMAN/MOSCOW CLEAR     56  40  55 E6        30.09R
LEWISTON       CLEAR     53  44  71 SE6       30.05R
LOWELL           N/A     47  43  86 CALM      30.16R

...COLUMBIA BASIN...

CITY           SKY/WX    TMP DP  RH WIND       PRES   REMARKS
EPHRATA        CLEAR     55  40  56 N6        29.99S
MOSES LAKE     CLEAR     50  42  74 N8        30.00R
TRI CITIES     CLEAR     47  42  83 N7        29.96R
HERMISTON      CLEAR     52  37  56 E6        29.94R
PENDLETON      CLEAR     63  26  24 S7        29.98R

...EAST SLOPES CASCADES...

CITY           SKY/WX    TMP DP  RH WIND       PRES   REMARKS
THE DALLES     PTCLDY    66  41  40 NW10      29.94R
YAKIMA         CLEAR     51  39  63 W9        29.98R
ELLENSBURG     CLEAR     50  42  74 CALM      30.00S
STAMPEDE PASS  PTCLDY    56  31  38 VRB5      30.06F
WENATCHEE      CLEAR     57  39  51 W8        30.01R
OMAK           CLEAR     49  38  65 CALM      30.03S

...SOUTHERN BRITISH COLUMBIA...

CITY           SKY/WX    TMP DP  RH WIND       PRES   REMARKS
PENTICTON      CLEAR     48  39  71 CALM      30.03R
CRANBROOK      CLEAR     48  32  53 W8        30.12R

...WESTERN MONTANA...

CITY           SKY/WX    TMP DP  RH WIND       PRES   REMARKS
MISSOULA       CLEAR     43  35  73 CALM      30.16R

...NEIGHBORING CITIES...

CITY           SKY/WX    TMP DP  RH WIND       PRES   REMARKS
SEATTLE        MOCLDY    58  50  75 S3        30.00R
CALGARY        PTCLDY    46  32  57 VRB2      30.02S



USA.gov is the U.S. government's official web portal to all federal, state and local government web resources and services.